Regional Weather Roundup
Issued by NWS

Home | Current Version | Previous Version | Text Only | Print | Product List | Glossary Off
Versions: 1 2 3 4 5 6 7 8 9 10 11 12 13 14 15 16 17 18 19 20 21 22 23 24 25 26 27 28 29 30 31 32 33 34 35 36 37 38 39 40 41 42 43 44 45 46 47 48 49 50

000
ASUS43 KBIS 231602
RWRND

NORTH DAKOTA REGIONAL WEATHER ROUNDUP
NATIONAL WEATHER SERVICE BISMARCK ND
1000 AM CST MON JAN 23 2017

NOTE: "FAIR" INDICATES FEW OR NO CLOUDS BELOW 12,000 FEET WITH NO
SIGNIFICANT WEATHER AND/OR OBSTRUCTIONS TO VISIBILITY.


NDZ001>003-009>011-017-231700-
NORTHWEST NORTH DAKOTA

CITY           SKY/WX    TMP DP  RH WIND       PRES   REMARKS
WILLISTON      CLOUDY    24  21  88 N6        29.80R WCI  17
MINOT          CLOUDY    26  22  84 W6        29.76S WCI  19
MINOT AFB      CLOUDY    24  19  82 NW15      29.75S WCI  12
$$

NDZ018>021-031>035-040>046-231700-
SOUTHWEST NORTH DAKOTA

CITY           SKY/WX    TMP DP  RH WIND       PRES   REMARKS
BISMARCK       CLOUDY    30  23  75 CALM      29.80S
DICKINSON      CLOUDY    23  19  85 S7        29.72R WCI  15
GARRISON         N/A     28  23  81 W6        29.76S
HETTINGER ARPT FOG       22  21  96 SE8       29.72F VSB 1/4 WCI  12
$$

NDZ004>008-012>016-024-026-027-054-231700-
NORTHEAST NORTH DAKOTA

CITY           SKY/WX    TMP DP  RH WIND       PRES   REMARKS
GRAND FORKS    CLOUDY    31  24  75 W10       29.80R
GRND FRKS AFB  CLOUDY    30  24  77 W12       29.80R
DEVILS LAKE    CLOUDY    26  22  84 W10       29.78S WCI  16
$$

NDZ022-023-025-028>030-036>039-047>053-231700-
SOUTHEAST NORTH DAKOTA

CITY           SKY/WX    TMP DP  RH WIND       PRES   REMARKS
FARGO          CLOUDY    35  29  78 W10       29.82R
JAMESTOWN      CLOUDY    29  23  78 W7        29.79F
$$





USA.gov is the U.S. government's official web portal to all federal, state and local government web resources and services.